Voltar ao catálogo

STARLINK-3638

AtivoComunicaçõesVLEO
NORAD 51786·PAYLOAD·🇺🇸 United States

Lançado Feb 25, 2022 de Vandenberg Space Force Base

Loading…

Próximas Passagens (próximas 24 horas)

TLE

AtualizadoSource: CelesTrak SupGP

Época: Sep 14, 2026, 22:02 UTC

1 51786C 22017U   26257.91854167 -.00004641  00000+0 -13715-3 0  2575
2 51786  53.1570 205.4605 0001364 102.4127  87.5775 15.34386939    14

Acompanhe STARLINK-3638 em tempo real com AllMySat

Download on the App Store